Showing default

LEMUR 2 KREMPEL-BRO2, 63353

Orbit data source: Space-Track

LEMUR 2 KREMPEL-BRO2, 63353 is a payload satellite owned by OroraTech (US) in SSO that was launched on Wed, 26 Mar 2025 UTC via an ELECTRON launch vehicle from the Rocket Lab Launch Complex (RLLC). Payload-class satellites include a variety of spacecraft equipped with specific instruments for various scientific and technological missions. These include communications satellites like Starlink; space stations such as the ISS; scientific satellites like the Hubble; Earth observation satellites from companies like Planet Labs, Umbra, and HawkEye 360; GPS; miniature CubeSats for education and research; and military/defense satellites.

Loading next visibility...
Identifier
63353, 2025-061C
Orbit
SSO
Country
Flag of USUS
Related business
Manufacturer
Spire/Glasgow
Mission
Operational Commercial Imaging
Bus & Motor
CUBESAT 6U, Unknown motor
Mass
~15 kg wet, ~15 kg dry
Launch date (UTC)
2025-03-26 (6 months ago)
Launch vehicle
ELECTRON
Launch site
Rocket Lab Launch Complex (RLLC)
Object type
Payload
Rocket body
Debris
Shape & HBR
Box + 2 Pan, 0.2 m
Radar Cross Section
0.065 m², Medium (>0.1 m² and < 1m²)

Expand to show TLE details & history
Last TLE update: 1 day ago

TLE from 1 day ago
0 LEMUR 2 KREMPEL-BRO2
1 63353U 25061C   25260.88362266  .00005747  00000-0  34787-3 0  9995
2 63353  97.5370 234.5551 0022546 112.5730 247.7889 15.10792344 26443
Epoch: 2025-09-17T21:12Z
TLE epoch observation values (Epoch: 2025-09-17T21:12:24.997Z)
Latitude
0.00001°
Longitude
-80.60223°
Altitude
542.779 km
Speed
7.588 km/s
True Right ascension
15h 38m 13s
True Declination
0° 00' 00"
Sunlit
Object was in daylight at epoch
Visualization orbit readout
Latitude
Unknown
Longitude
Unknown
Altitude
Unknown
Speed
Unknown
Apparent Right ascension
Unknown
Apparent Declination
Unknown
Sunlit
N/A
Visualization observer readout
Local Sidereal Time
21:55:35
Azimuth
Unknown
Elevation
Unknown
Doppler factor
Unknown
Orbital elements
Apogee altitude
546.343 km
Perigee altitude
515.189 km
Semi-major axis
6,908.903 km
Eccentricity
0.00225
Inclination
97.537°
RAAN
234.5551°
Arg. of periapsis
112.573°
True anomaly
247.54997°
Mean anomaly
247.7889°
Eccentric anomaly
247.66941°
Mean motion
3.77946 °/min
Orbital period
95.25 mins
BSTAR
0.00034787
Loading maneuver chart data...
Computing Atmospheric mass density...
Loading historical data...
Loading historical data...
Loading historical data...
Loading historical data...
Loading historical data...
Loading historical data...
Loading historical data...

Documentation

Showing up to 5 results
|